When you browse on this site, cookies collect data to enhance your experience and personalize the content and advertising you see.
Visit our Privacy Policy to learn more. By continuing to use the site, you agree to this use of cookies and data.
  • en Suisse
  • Liste des pays
  • À 7 jours
  • Température de l'eau
  • Carte satellitaire
  • Carte météo
  • Widgets météo
  • user-avatar
    Se connecter

    Météo par heure à Ali Bayramli

    Ce jour, 18 Juin, Mardi

    Heure Température Précipitation Vent Pression Humidité
    00:00 +29°C° 0 mm 4 m/s 754 mmHg 43%
    01:00 +28°C° 0 mm 4 m/s 754 mmHg 46%
    02:00 +27°C° 0 mm 3 m/s 754 mmHg 49%
    03:00 +26°C° 0 mm 3 m/s 754 mmHg 52%
    04:00 +27°C° 0.1 mm 3 m/s 754 mmHg 52%
    05:00 +27°C° 0.1 mm 3 m/s 754 mmHg 52%
    06:00 +27°C° 0.1 mm 3 m/s 754 mmHg 52%
    07:00 +29°C° 0 mm 3 m/s 754 mmHg 47%
    08:00 +31°C° 0 mm 3 m/s 755 mmHg 41%
    09:00 +33°C° 0 mm 3 m/s 755 mmHg 35%
    10:00 +35°C° 0 mm 2 m/s 754 mmHg 32%
    11:00 +36°C° 0 mm 2 m/s 754 mmHg 29%
    12:00 +37°C° 0 mm 2 m/s 754 mmHg 26%
    13:00 +38°C° 0 mm 3 m/s 754 mmHg 25%
    14:00 +38°C° 0 mm 4 m/s 753 mmHg 24%
    15:00 +40°C° 0 mm 5 m/s 753 mmHg 24%
    16:00 +39°C° 0 mm 6 m/s 753 mmHg 24%
    17:00 +38°C° 0 mm 7 m/s 753 mmHg 24%
    18:00 +37°C° 0 mm 8 m/s 753 mmHg 25%
    19:00 +35°C° 0 mm 8 m/s 753 mmHg 25%
    20:00 +34°C° 0 mm 7 m/s 754 mmHg 25%
    21:00 +33°C° 0 mm 7 m/s 754 mmHg 26%
    22:00 +32°C° 0 mm 5 m/s 754 mmHg 29%
    23:00 +30°C° 0 mm 4 m/s 754 mmHg 33%

    Demain, 19 Juin, Mercredi

    Heure Température Précipitation Vent Pression Humidité
    00:00 +29°C° 0 mm 3 m/s 754 mmHg 37%
    01:00 +28°C° 0 mm 3 m/s 754 mmHg 40%
    02:00 +27°C° 0 mm 3 m/s 754 mmHg 43%
    03:00 +27°C° 0 mm 3 m/s 754 mmHg 46%
    04:00 +27°C° 0 mm 3 m/s 754 mmHg 45%
    05:00 +28°C° 0 mm 4 m/s 754 mmHg 44%
    06:00 +28°C° 0 mm 4 m/s 754 mmHg 43%
    07:00 +30°C° 0 mm 3 m/s 754 mmHg 37%
    08:00 +33°C° 0 mm 3 m/s 754 mmHg 30%
    09:00 +35°C° 0 mm 2 m/s 754 mmHg 24%
    10:00 +37°C° 0 mm 4 m/s 754 mmHg 22%
    11:00 +39°C° 0 mm 5 m/s 754 mmHg 19%
    12:00 +40°C° 0 mm 6 m/s 754 mmHg 17%
    13:00 +40°C° 0 mm 7 m/s 754 mmHg 17%
    14:00 +40°C° 0 mm 7 m/s 753 mmHg 18%
    15:00 +40°C° 0 mm 8 m/s 753 mmHg 18%
    16:00 +39°C° 0 mm 7 m/s 753 mmHg 19%
    17:00 +38°C° 0 mm 7 m/s 753 mmHg 20%
    18:00 +36°C° 0 mm 7 m/s 753 mmHg 21%
    19:00 +35°C° 0 mm 6 m/s 753 mmHg 24%
    20:00 +33°C° 0 mm 5 m/s 754 mmHg 27%
    21:00 +32°C° 0 mm 4 m/s 754 mmHg 30%
    22:00 +30°C° 0 mm 4 m/s 754 mmHg 35%
    23:00 +29°C° 0 mm 3 m/s 754 mmHg 39%

    Après-demain, 20 Juin, Jeudi

    Heure Température Précipitation Vent Pression Humidité
    00:00 +28°C° 0 mm 3 m/s 754 mmHg 43%
    01:00 +27°C° 0 mm 3 m/s 754 mmHg 45%
    02:00 +27°C° 0 mm 2 m/s 754 mmHg 47%
    03:00 +26°C° 0 mm 2 m/s 754 mmHg 49%
    04:00 +27°C° 0 mm 2 m/s 754 mmHg 47%
    05:00 +28°C° 0 mm 2 m/s 754 mmHg 44%
    06:00 +28°C° 0 mm 2 m/s 754 mmHg 42%
    07:00 +30°C° 0 mm 2 m/s 754 mmHg 36%
    08:00 +32°C° 0 mm 2 m/s 754 mmHg 30%
    09:00 +35°C° 0 mm 2 m/s 754 mmHg 23%
    10:00 +36°C° 0 mm 2 m/s 754 mmHg 21%
    11:00 +38°C° 0 mm 2 m/s 753 mmHg 18%
    12:00 +39°C° 0 mm 3 m/s 753 mmHg 16%
    13:00 +40°C° 0 mm 4 m/s 753 mmHg 16%
    14:00 +40°C° 0 mm 5 m/s 752 mmHg 16%
    15:00 +41°C° 0 mm 7 m/s 752 mmHg 16%
    16:00 +39°C° 0 mm 7 m/s 752 mmHg 18%
    17:00 +38°C° 0 mm 7 m/s 752 mmHg 21%
    18:00 +35°C° 0 mm 7 m/s 752 mmHg 23%
    19:00 +34°C° 0 mm 6 m/s 753 mmHg 27%
    20:00 +33°C° 0 mm 5 m/s 753 mmHg 31%
    21:00 +30°C° 0 mm 4 m/s 754 mmHg 36%
    22:00 +30°C° 0 mm 4 m/s 753 mmHg 38%
    23:00 +29°C° 0 mm 4 m/s 753 mmHg 41%

    21 Juin, Vendredi

    Heure Température Précipitation Vent Pression Humidité
    00:00 +28°C° 0 mm 4 m/s 753 mmHg 44%
    01:00 +28°C° 0 mm 3 m/s 753 mmHg 44%
    02:00 +27°C° 0 mm 3 m/s 753 mmHg 45%
    03:00 +26°C° 0 mm 2 m/s 753 mmHg 46%
    04:00 +27°C° 0.1 mm 2 m/s 753 mmHg 47%
    05:00 +27°C° 0.1 mm 3 m/s 753 mmHg 48%
    06:00 +27°C° 0.1 mm 3 m/s 753 mmHg 49%
    07:00 +29°C° 0 mm 2 m/s 753 mmHg 43%
    08:00 +31°C° 0 mm 2 m/s 754 mmHg 37%
    09:00 +33°C° 0 mm 1 m/s 754 mmHg 30%
    10:00 +35°C° 0.1 mm 2 m/s 754 mmHg 28%
    11:00 +36°C° 0.1 mm 3 m/s 754 mmHg 25%
    12:00 +38°C° 0.1 mm 4 m/s 754 mmHg 22%
    13:00 +39°C° 0.2 mm 5 m/s 753 mmHg 22%
    14:00 +39°C° 0.2 mm 6 m/s 753 mmHg 22%
    15:00 +40°C° 0.2 mm 8 m/s 753 mmHg 22%
    16:00 +39°C° 0.2 mm 8 m/s 753 mmHg 24%
    17:00 +38°C° 0.2 mm 7 m/s 753 mmHg 25%
    18:00 +38°C° 0.2 mm 7 m/s 753 mmHg 27%
    19:00 +36°C° 0 mm 6 m/s 753 mmHg 28%
    20:00 +34°C° 0 mm 6 m/s 754 mmHg 29%
    21:00 +33°C° 0 mm 5 m/s 754 mmHg 30%
    22:00 +32°C° 0 mm 4 m/s 754 mmHg 35%
    23:00 +30°C° 0 mm 3 m/s 754 mmHg 40%

    22 Juin, Samedi

    Heure Température Précipitation Vent Pression Humidité
    00:00 +29°C° 0 mm 3 m/s 754 mmHg 45%
    01:00 +29°C° 0 mm 3 m/s 754 mmHg 46%
    02:00 +28°C° 0 mm 3 m/s 754 mmHg 47%
    03:00 +28°C° 0 mm 3 m/s 754 mmHg 48%
    04:00 +28°C° 0.1 mm 3 m/s 754 mmHg 47%
    05:00 +28°C° 0.1 mm 3 m/s 755 mmHg 46%
    06:00 +29°C° 0.1 mm 2 m/s 755 mmHg 45%
    07:00 +31°C° 0 mm 3 m/s 755 mmHg 39%
    08:00 +34°C° 0 mm 3 m/s 755 mmHg 32%
    09:00 +36°C° 0 mm 3 m/s 755 mmHg 26%
    10:00 +37°C° 0 mm 5 m/s 755 mmHg 23%
    11:00 +39°C° 0 mm 6 m/s 755 mmHg 21%
    12:00 +40°C° 0 mm 8 m/s 755 mmHg 19%
    13:00 +40°C° 0 mm 8 m/s 755 mmHg 18%
    14:00 +41°C° 0 mm 8 m/s 754 mmHg 18%
    15:00 +42°C° 0 mm 9 m/s 754 mmHg 17%
    16:00 +40°C° 0 mm 8 m/s 754 mmHg 18%
    17:00 +39°C° 0 mm 8 m/s 754 mmHg 19%
    18:00 +39°C° 0 mm 8 m/s 754 mmHg 19%
    19:00 +36°C° 0 mm 7 m/s 755 mmHg 22%
    20:00 +35°C° 0 mm 7 m/s 755 mmHg 25%
    21:00 +33°C° 0 mm 6 m/s 755 mmHg 28%
    22:00 +32°C° 0 mm 5 m/s 755 mmHg 32%
    23:00 +30°C° 0 mm 4 m/s 755 mmHg 36%

    23 Juin, Dimanche

    Heure Température Précipitation Vent Pression Humidité
    00:00 +29°C° 0 mm 3 m/s 755 mmHg 40%
    01:00 +28°C° 0 mm 3 m/s 755 mmHg 43%
    02:00 +28°C° 0 mm 3 m/s 755 mmHg 47%
    03:00 +27°C° 0 mm 2 m/s 755 mmHg 50%
    04:00 +28°C° 0 mm 2 m/s 755 mmHg 49%
    05:00 +28°C° 0 mm 2 m/s 755 mmHg 47%
    06:00 +29°C° 0 mm 2 m/s 756 mmHg 46%
    07:00 +31°C° 0 mm 2 m/s 756 mmHg 40%
    08:00 +34°C° 0 mm 2 m/s 756 mmHg 33%
    09:00 +36°C° 0 mm 2 m/s 756 mmHg 27%
    10:00 +37°C° 0 mm 3 m/s 756 mmHg 25%
    11:00 +40°C° 0 mm 4 m/s 756 mmHg 23%
    12:00 +41°C° 0 mm 5 m/s 756 mmHg 21%
    13:00 +41°C° 0 mm 6 m/s 755 mmHg 21%
    14:00 +41°C° 0 mm 7 m/s 755 mmHg 21%
    15:00 +42°C° 0 mm 9 m/s 755 mmHg 21%
    16:00 +39°C° 0 mm 9 m/s 755 mmHg 27%
    17:00 +37°C° 0 mm 8 m/s 755 mmHg 34%
    18:00 +34°C° 0 mm 8 m/s 755 mmHg 41%
    19:00 +33°C° 0 mm 7 m/s 755 mmHg 45%
    20:00 +32°C° 0 mm 6 m/s 756 mmHg 49%
    21:00 +30°C° 0 mm 5 m/s 756 mmHg 53%
    22:00 +30°C° 0 mm 4 m/s 756 mmHg 52%
    23:00 +29°C° 0 mm 3 m/s 756 mmHg 51%
    Voir plus